Regional Weather Roundup
Issued by NWS Wakefield, VA

Home | Current Version | Previous Version | Graphics & Text | Print | Product List | Glossary On
Versions: 1 2 3 4 5 6 7 8 9 10 11 12 13 14 15 16 17 18 19 20 21 22 23 24 25 26 27 28 29 30 31 32 33 34 35 36 37 38 39 40 41 42 43 44 45 46 47 48 49 50
921
ASUS41 KAKQ 180115
RWRAKQ

REGIONAL WEATHER ROUNDUP
NATIONAL WEATHER SERVICE WAKEFIELD VA
900 PM EDT TUE OCT 17 2017

Note: "fair" indicates few or no clouds below 12,000 feet with no
significant weather and/or obstructions to visibility. * = Denotes
station may not report precipitation (e.g., rain,snow,etc.),
thunder or fog.

VAZ042-051-052>054-056-180200-
NORTHERN VIRGINIA

CITY           SKY/WX    TMP DP  RH WIND       PRES   REMARKS
WASH NATIONAL  CLEAR     54  40  59 SE7       30.32R
DULLES         CLEAR     47  38  71 S3        30.31R
FORT BELVOIR   CLEAR     45  42  90 CALM      30.32R
QUANTICO       CLEAR     50  46  86 W6        30.33S
FREDERICKSBRG* CLEAR     46  41  82 CALM      30.32S
STAFFORD*      CLEAR     40  40 100 CALM      30.36S
WARRENTON      CLEAR     40  34  80 CALM      30.31S
CULPEPER*      CLEAR     44  38  79 CALM      30.32S
MANASSAS*      CLEAR     45  40  82 CALM      30.32R
LEESBURG*      CLEAR     46  43  87 SW6       30.32R
WINCHESTER     CLEAR     46  36  66 CALM      30.29S
FRONT ROYAL*   CLEAR     46  36  66 S3        30.29R
LURAY*         CLEAR     46  39  76 CALM      30.30S
$$

VAZ048-049-060>072-079>083-180200-
CENTRAL AND SOUTH CENTRAL VIRGINIA

CITY           SKY/WX    TMP DP  RH WIND       PRES   REMARKS
RICHMOND       CLEAR     49  41  74 CALM      30.33S
CHESTERFIELD*  NOT AVBL
PETERSBURG*    CLEAR    N/A N/A N/A CALM      30.34R
HANOVER        CLEAR     44  40  85 CALM      30.34S
TAPPAHANNOCK*  CLEAR     44  44 100 CALM      30.34S
QUINTON*       FAIR      45  45 100 CALM      30.33S
CHARLOTTSVILLE CLEAR     49  40  71 CALM      30.32R
GORDONSVILLE*  CLEAR     43  41  92 CALM      30.32S
ORANGE*        CLEAR     43  37  81 CALM      30.32S
LOUISA*        CLEAR     39  37  93 CALM      30.32S
BUMPASS*       FAIR      43  42  96 S5        30.32S
FARMVILLE*     CLEAR     44  41  89 CALM      30.32S
CREWE*         FAIR      42  42 100 CALM      30.33S
FORT PICKETT*  FAIR      46  41  85 W5        30.34R
CHASE CITY*    FAIR      45  39  80 CALM      30.33R
CLARKSVILLE*   FAIR      46  41  81 CALM      30.32S
SOUTH HILL*    CLEAR     44  42  93 CALM      30.39R
LAWRENCEVILLE* FAIR      46  40  78 CALM      30.33R
EMPORIA*       CLEAR     43  37  81 CALM      30.35R
$$

VAZ088>098-180200-
SOUTHEAST VIRGINIA

CITY           SKY/WX    TMP DP  RH WIND       PRES   REMARKS
NORFOLK        CLEAR     52  47  83 SW3       30.32S
VIRGINIA BEACH PTCLDY    49  42  77 CALM      30.32R
NORFOLK NAVAL  PTCLDY    48  44  86 VRB3      30.34R
WEST POINT*    CLEAR     44  42  93 CALM      30.35S
SALUDA*        FAIR      47  40  76 NE3       30.33S
NEWPORT NEWS   CLEAR     46  43  89 CALM      30.33S
LANGLEY AFB    CLEAR     46  44  91 CALM      30.33R
FORT EUSTIS    CLEAR     47  41  80 CALM      30.31R
WILLIAMSBURG*  CLEAR     48  46  93 CALM      30.34S
HR EXEC AP*    NOT AVBL
FRANKLIN*      CLEAR     44  42  92 CALM      30.34R
US460-WAKEFLD  CLEAR     46  45  96 CALM      30.33R
$$

VAZ020-022-025-037-045-180200-
WEST CENTRAL AND SOUTHWEST VIRGINIA

CITY           SKY/WX    TMP DP  RH WIND       PRES   REMARKS
STAUNTON*      CLEAR     45  36  70 CALM      30.33R
WAYNESBORO*    CLEAR     48  37  64 CALM      30.32R
HOT SPRINGS VA CLEAR     48  30  50 CALM      30.33R
LYNCHBURG      CLEAR     45  39  79 CALM      30.32R
DANVILLE       CLEAR     44  42  93 CALM      30.33R
SOUTH BOSTON*  FAIR      44  39  83 CALM      30.33S
MARTINSVILLE   CLEAR     43  41  94 CALM      30.36R
ROANOKE        CLEAR     52  39  61 CALM      30.34R
BLACKSBURG     CLEAR     51  37  58 SE5       30.35R
DUBLIN*        CLEAR     47  40  77 CALM      30.33S
MARION*        CLEAR     46  39  76 CALM      30.35S
HILLSVILLE*    CLEAR     49  34  56 CALM      30.32R
RICHLANDS*     FAIR      52  33  47 E3        30.33R
WISE*          CLEAR     50  36  57 CALM      30.33S
ABINGDON*      CLEAR     50  41  70 CALM      30.31S
$$

MDZ021>025-VAZ099-100-180200-
SOUTHERN MARYLAND AND THE DELMARVA PENINSULA

CITY           SKY/WX    TMP DP  RH WIND       PRES   REMARKS
PATUXENT RIVER PTCLDY    43  41  93 SW3       30.33R
BAY BRIDGE APT CLEAR     48  41  76 S3        30.32R
LEONARDTOWN    NOT AVBL
DOVER          CLEAR     48  39  71 S5        30.32R
GEORGETOWN     PTCLDY    47  41  80 CALM      30.33S
EASTON         CLEAR     48  41  76 CALM      30.36R
CAMBRIDGE      CLEAR     45  43  93 CALM      30.33S
SALISBURY      CLEAR     44  43  96 CALM      30.33S
OCEAN CITY     CLEAR     42  41  96 CALM      30.33S
WALLOPS ISLAND CLEAR     46  45  96 NW3       30.33S
ACCOMACK*      CLEAR     45  44  97 CALM      30.33S
$$

NCZ012>017-030>032-180200-
NORTH CENTRAL AND EASTERN NORTH CAROLINA

CITY           SKY/WX    TMP DP  RH WIND       PRES   REMARKS
ROANOKE RAPIDS NOT AVBL
RALEIGH        PTCLDY    48  42  80 NE3       30.33R
ELIZABETH CITY CLEAR     54  46  74 N9        30.32R
AHOSKIE*       CLEAR     47  44  87 CALM      30.34R
EDENTON*       CLEAR     51  44  77 CALM      30.33R
CURRITUCK*     PTCLDY    51  46  80 CALM      30.32S
KILL DEVIL HLS PTCLDY    58  44  60 NE7       30.29S
MANTEO         MOCLDY   N/A N/A N/A NE12      30.30S
CAPE HATTERAS  CLOUDY    61  50  67 NE9G18    30.27R
TARBORO*       NOT AVBL
GOLDSBORO      CLEAR     51  42  70 CALM      30.29R
WASHINGTON     CLEAR     51  44  75 NE5       30.32S
GREENVILLE     CLEAR     48  43  81 CALM      30.32S
NEW BERN       CLEAR     53  43  68 NE7       30.31S
WILMINGTON     CLOUDY    50  47  89 NE5       30.29R
$$

VAZ048-180200-
ELSEWHERE

CITY           SKY/WX    TMP DP  RH WIND       PRES   REMARKS
HARRISBURG PA  CLEAR     51  41  68 E5        30.28R
BALTIMORE      CLEAR     48  41  76 CALM      30.31R
ANNAPOLIS      CLEAR     52  46  80 CALM      30.32R
ANDREWS AFB    CLEAR     48  41  76 S3        30.31R
PHILADELPHIA   CLEAR     54  38  54 S7        30.31R
HENDERSON NC   CLEAR     44  38  78 CALM      30.33R
GREENSBORO     CLEAR     52  42  69 CALM      30.32R
ROCKY MOUNT    CLEAR     46  45  96 CALM      30.33R
$$

VAZ100-180200-
MARINE

STATION/POSITION TIME  TEMP    WIND        PRES    WAVE   SWELL
                       AIR SEA DIR/SP/G            HT/PER HT/PER
                 (UTC) (F)     (DEG/KT/KT) (MB)    (FT/S) (FT/S)
BRANDYWINE LGT   0042   58     230/  4/  6 1027.0R
CAPE MAY NJ      0048   49 65  110/  3/  3 1026.3R
LEWES DE         0042   50 64  210/  4/  5 1026.6R
15NM E FENWICK I 0050   56 67  360/  6/  8 1027.2R   4/ 7   3/ 7
OCEAN-CITY-INLET 0048   55 67  360/  2/  2 1027.3S
WACHAPREAGUE VA  0048   48 65  290/  1/  2 1026.9S
THOMAS POINT MD  0100   59 68  200/ 10/ 11   N/A
GOOSES REEF MD   0050   59     160/  6/  8 1026.9R
COVE POINT MD    0048   56     240/  5/  6 1027.6R
SOLOMONS ISLAND  0042   56 70  220/  3/  4 1026.7R
BISHOPS HEAD MD  0048   55 61  350/  3/  4 1027.1S
PINEY POINT MD   0048          180/  3/  5   N/A
POTOMAC MD       0050   58     350/  4/  6 1026.4S
CAMBRIDGE MD     0048   49 67              1027.6R
LEWISETTA VA     0048   53 65  240/  3/  3 1026.9S
RAPPAHANNOCK LGT 0048           20/  4/  6 1027.4S
STINGRAY PT      0050   58      90/  4/  8 1027.1F
YORK RVR RNG VA  0048   57      60/  6/  8 1027.3S
YORKTOWN VA      0048   57 70   50/  7/  8 1026.5S
JAMESTOWN VA     0050           70/  6/  6   N/A
DOMINION TERM VA 0048   56      40/  2/  3 1027.1R
KIPTOPEKE VA     0036      68   40/  4/  6   N/A
CAPE HENRY VA    0048   57      10/  7/ 10   N/A
WILLOUBY STN VA  0036   57     360/  5/  6 1026.7S
S CRANEY ISL VA  0048   57      30/  4/  5 1026.7R
CAPE HENRY BUOY  0030      70                N/A     4/ 7   2/11
1ST LANDING BUOY 0050   57                 1026.8R
CAPE CHARLES BUO 0021      70                N/A     3/11   2/11
64NM E OF VA BCH 0050   60 67   20/ 12/ 17 1026.1R   5/ 7   3/ 7
DUCK PIER NC     0048   60 68   50/ 18/ 19 1025.8R
44100 DUCK FRF   0035      71                N/A     5/ 8   2/11
44056 DUCK FRF   0030      71                N/A     5/ 8   2/11
OREGON INLET NC  0036   60 66   10/ 12/ 16 1025.6R
HATTERAS NC      0048   62 68   30/ 14/ 18 1024.8S
DIAMOND SHLS NC  0050   65 81   20/ 19/ 23 1023.8R   7/11   3/11
CAPE LOOKOUT NC  0100   60      10/ 14/ 17 1024.6S
$$




USA.gov is the U.S. government's official web portal to all federal, state and local government web resources and services.